Meteo Giornale » Osservazioni meteo Italia » Genova-Sestri

ore: 02:20 - Osservazioni Meteo Genova-Sestri
Lat. 44° 25' N Lon. 8° 51' E Alt. 2 metri s.l.m.

sereno Europe/Rome

17 °C

Sereno

Temp. 24 Ore

17 °C

22 °C

Nord/Nord-Est

7.4 Km/h

Dew point 15 °C

Umidità 88 %

Visibilità  10 Km

Il sole sorge alle ore 07:14

Il sole tramonta alle ore 19:17

Data e Ora Cielo e Fenomeni T °C DP °C Um. % Pres. hPa Vis. km Vento km/h
Oggi h: 02:20 sereno Sereno 17 15 88 1018 10 N/NE 7.4
Oggi h: 01:50 sereno Sereno 17 15 88 1019 10 N/NE 9.3
Oggi h: 01:20 sereno Sereno 18 15 82 1019 10 N 5.5
Oggi h: 00:50 sereno Sereno 18 15 82 1019 10 N/NE 9.3
Oggi h: 00:20 nuvoloso Nuvoloso 18 16 88 1019 10 N/NE 9.3
Ieri h: 23:50 nuvoloso Nuvoloso 19 16 82 1019 10 N/NE 7.4
Ieri h: 23:20 nuvoloso Nuvoloso 19 16 82 1019 10 N 5.5
Ieri h: 22:50 nuvoloso Nuvoloso 19 16 82 1019 10 N 1.8
Ieri h: 22:20 nuvoloso Nuvoloso 20 17 82 1019 10 N 1.8
Ieri h: 21:50 nuvoloso Nuvoloso 19 17 88 1019 10 N 5.5
Ieri h: 21:20 nuvoloso Nuvoloso 19 17 88 1018 10 SE 7.4
Ieri h: 20:50 nuvoloso Nuvoloso 19 16 82 1018 10 SE 7.4
Ieri h: 20:20 nuvoloso Nuvoloso 20 17 82 1018 10 N 5.5
Ieri h: 19:50 molto_nuvoloso Molto Nuvoloso 20 17 82 1018 10 N 5.5
Ieri h: 19:20 molto_nuvoloso Molto Nuvoloso 20 17 82 1018 10 N 5.5
Ieri h: 18:50 nuvoloso Nuvoloso 20 17 82 1018 10 N 5.5
Ieri h: 17:50 nuvoloso Nuvoloso 21 17 77 1017 10 N 5.5
Ieri h: 17:20 poco_nuvoloso Poco Nuvoloso 21 16 73 1017 10 N 5.5
Ieri h: 16:50 poco_nuvoloso Poco Nuvoloso 21 16 73 1017 10 S 7.4
Ieri h: 16:20 poco_nuvoloso Poco Nuvoloso 21 16 73 1018 10 N 5.5
Ieri h: 15:50 poco_nuvoloso Poco Nuvoloso 21 16 73 1018 10 N 5.5
Ieri h: 15:20 nuvoloso Nuvoloso 22 16 68 1018 10 S/SE 7.4
Ieri h: 14:50 nuvoloso Rovescio nelle Vicinanze 21 16 73 1018 10 S 7.4
Ieri h: 14:20 poco_nuvoloso Poco Nuvoloso 21 15 68 1018 10 S/SE 9.3
Ieri h: 13:50 poco_nuvoloso Poco Nuvoloso 21 16 73 1018 10 SE 13
Ieri h: 13:20 nuvoloso Nuvoloso 21 17 77 1018 10 SE 14.8
Ieri h: 12:50 nuvoloso Nuvoloso 21 16 73 1018 10 S/SE 7.4
Ieri h: 12:20 nuvoloso Nuvoloso 21 16 73 1018 10 SE 14.8
Ieri h: 11:50 nuvoloso Nuvoloso 21 16 73 1018 10 SE 22.2
Ieri h: 11:20 nuvoloso Nuvoloso 21 16 73 1018 10 S/SE 9.3
Ieri h: 10:50 nuvoloso Nuvoloso 21 16 73 1018 10 N 5.5
Ieri h: 10:20 poco_nuvoloso Poco Nuvoloso 21 15 68 1018 10 N 3.7
Ieri h: 09:50 nuvoloso Nuvoloso 20 15 72 1018 10 N 5.5
Ieri h: 09:20 molto_nuvoloso Molto Nuvoloso 19 15 77 1018 10 N 5.5
Ieri h: 08:50 molto_nuvoloso Molto Nuvoloso 18 15 82 1018 10 N 3.7
Ieri h: 08:20 molto_nuvoloso Molto Nuvoloso 18 15 82 1018 10 N/NE 7.4
Ieri h: 07:50 molto_nuvoloso Molto Nuvoloso 18 15 82 1018 10 N/NE 9.3
Ieri h: 07:20 nuvoloso Nuvoloso 18 15 82 1018 10 N/NE 7.4
Ieri h: 06:50 nuvoloso Nuvoloso 18 15 82 1018 10 N 7.4
Ieri h: 06:20 nuvoloso Nuvoloso 18 15 82 1017 10 N/NE 7.4
Ieri h: 05:50 nuvoloso Nuvoloso 18 15 82 1018 10 N/NE 7.4
Ieri h: 05:20 poco_nuvoloso Poco Nuvoloso 18 15 82 1018 10 N/NE 7.4
Ieri h: 04:50 poco_nuvoloso Poco Nuvoloso 18 15 82 1018 10 N/NE 7.4
Ieri h: 04:20 poco_nuvoloso Poco Nuvoloso 18 15 82 1018 10 N 5.5
Ieri h: 03:50 nuvoloso Nuvoloso 18 15 82 1018 10 N/NE 9.3
Ieri h: 03:20 nuvoloso Nuvoloso 18 15 82 1019 10 N/NE 9.3
Ieri h: 02:50 nuvoloso Nuvoloso 18 15 82 1019 10 N/NE 7.4